Location: New Canada
(47.1017°N, 68.5042°W)
Time: 06:58:22
(UTC+00:00)

EO-79 - Pass Details

Date: 01 April 2023
Orbit: 578 x 593 km, 98.0° (Epoch: 03 June)

Event Time Altitude Azimuth Distance (km) Brightness Sun altitude
Rises 05:51:21 0° 26° (NNE) 2,829 ? -36.0°
Reaches altitude 10° 05:53:58 10° 43° (NE) 1,919 ? -35.8°
Enters shadow 05:54:45 14° 51° (NE) 1,693 ? -35.7°
